This is the latest recevied weather packets stored in our database for station/object YM2KV-13. If no packets are shown the sender has not sent any weather packets the latest 10 day(s).
| Time | Temp. | Humidity | Pressure | Rain* | Wind** | Luminosity | Snow |
|---|---|---|---|---|---|---|---|
| 1777481899 | 11.67° C | 69% | 1029.3 hPa | - | - | - | - |
| 1777481299 | 11.67° C | 67% | 1029.3 hPa | - | - | - | - |
| 1777480699 | 12.22° C | 66% | 1029.1 hPa | - | - | - | - |
| 1777480099 | 12.22° C | 66% | 1029 hPa | - | - | - | - |
| 1777479499 | 12.78° C | 65% | 1029.1 hPa | - | - | - | - |
| 1777478899 | 12.78° C | 64% | 1029.2 hPa | - | - | - | - |
| 1777478299 | 13.33° C | 63% | 1029.1 hPa | - | - | - | - |
| 1777477699 | 13.33° C | 63% | 1029.2 hPa | - | - | - | - |
| 1777477099 | 13.89° C | 62% | 1029.2 hPa | - | - | - | - |
| 1777476499 | 13.89° C | 62% | 1029.2 hPa | - | - | - | - |
| 1777475899 | 14.44° C | 61% | 1029.3 hPa | - | - | - | - |
| 1777475299 | 15° C | 60% | 1029.4 hPa | - | - | - | - |
| 1777474699 | 15° C | 60% | 1029.5 hPa | - | - | - | - |
| 1777474099 | 15° C | 60% | 1029.5 hPa | - | - | - | - |
| 1777473499 | 15.56° C | 58% | 1029.5 hPa | - | - | - | - |
| 1777472899 | 16.11° C | 57% | 1029.5 hPa | - | - | - | - |
| 1777472299 | 16.11° C | 57% | 1029.5 hPa | - | - | - | - |
| 1777471699 | 16.67° C | 55% | 1029.6 hPa | - | - | - | - |
| 1777471099 | 16.67° C | 55% | 1029.5 hPa | - | - | - | - |
| 1777470499 | 17.78° C | 54% | 1029.4 hPa | - | - | - | - |
| 1777469899 | 17.22° C | 54% | 1029.4 hPa | - | - | - | - |
| 1777469299 | 17.22° C | 53% | 1029.4 hPa | - | - | - | - |
| 1777468699 | 17.78° C | 52% | 1029.4 hPa | - | - | - | - |
| 1777468099 | 17.78° C | 51% | 1029.5 hPa | - | - | - | - |
| 1777467499 | 17.78° C | 51% | 1029.5 hPa | - | - | - | - |
* Rain since midnight (hover to see other rain measurements)
** Current wind speed in m/s (hover to see current wind gust speed)